Change the Weather History Date:

Thursday, November 7, 2013

  Actual Average Record
Temperature  
Mean Temperature 43 °F 47 °F  
Max Temperature 49 °F 55 °F 79 °F (1938)
Min Temperature 36 °F 40 °F 23 °F (1971)
Degree Days  
Heating Degree Days 22 18  
Month to date heating degree days 117 119  
Since 1 July heating degree days 528 579  
Cooling Degree Days 0 0  
Month to date cooling degree days 0 0  
Year to date cooling degree days 889 816  
Moisture  
Dew Point 34 °F    
Average Humidity 70    
Maximum Humidity 86    
Minimum Humidity 53    
Precipitation  
Precipitation 0.34 in 0.12 in 0.90 in (1972)
Month to date precipitation 0.98 0.82  
Year to date precipitation 35.85 33.24  
Snow  
Snow 0.00 in 0.10 in - ()
Month to date snowfall 0.0 0.5  
Since 1 July snowfall T 0.7  
Since 1 September snowfall T 0.7  
Snow Depth 0.00 in    
Sea Level Pressure  
Sea Level Pressure 30.10 in    
Wind  
Wind Speed 13 mph (West)    
Max Wind Speed 29 mph    
Max Gust Speed 42 mph    
Visibility 9 miles    
Events Rain    
T = Trace of Precipitation, MM = Missing Value Source: NWS Daily Summary

Daily Weather History Graph

Daily Weather History Graph

Search for Another Location

Airport or City:

Trip Planner

Search our weather history database for the weather conditions in past years. The results will help you decide how hot, cold, wet, or windy it might be!

Date:

Astronomy

Nov. 07, 2013 Rise Set
Actual Time 7:06 AM EST 5:15 PM EST
Civil Twilight 6:37 AM EST 5:44 PM EST
Nautical Twilight 6:04 AM EST 6:17 PM EST
Astronomical Twilight 5:31 AM EST 6:49 PM EST
Moon 11:14 AM EST (11/7) 9:24 PM EST (11/7)
Length of Visible Light 11h 07m
Length of Day
10h 08m
Waxing Crescent, 22% of the Moon is Illuminated
Nov 7
Waxing Crescent
Nov 10
First Quarter
Nov 17
Full
Nov 25
Last Quarter
Dec 2
New

Hourly Weather History & Observations

Time (EST) Temp. Windchill Dew Point Humidity Pressure Visibility Wind Dir Wind Speed Gust Speed Precip Events Conditions
12:51 AM 48.0 °F - 44.1 °F 86% 29.99 in 9.0 mi WNW 9.2 mph 20.7 mph 0.11 in Rain Light Rain
1:51 AM 46.9 °F - 43.0 °F 86% 30.00 in 10.0 mi WNW 8.1 mph - 0.04 in Rain Light Rain
2:27 AM 46.9 °F - 43.0 °F 86% 29.99 in 10.0 mi WNW 8.1 mph - 0.04 in Rain Light Rain
2:51 AM 46.9 °F - 43.0 °F 86% 30.03 in 10.0 mi WNW 12.7 mph - 0.05 in   Overcast
2:58 AM 46.9 °F - 42.1 °F 83% 30.02 in 10.0 mi WNW 11.5 mph - N/A   Overcast
3:51 AM 46.0 °F 39.9 °F 39.0 °F 76% 30.01 in 10.0 mi NW 13.8 mph - 0.00 in   Overcast
4:41 AM 46.0 °F 40.2 °F 37.9 °F 73% 30.02 in 10.0 mi NNW 12.7 mph - N/A   Overcast
4:51 AM 46.0 °F 40.2 °F 37.9 °F 73% 30.03 in 10.0 mi NW 12.7 mph - N/A   Overcast
5:51 AM 45.0 °F 40.1 °F 36.0 °F 71% 30.06 in 10.0 mi NW 9.2 mph - 0.00 in Rain Light Rain
6:00 AM 45.0 °F 40.1 °F 37.0 °F 74% 30.05 in 10.0 mi NW 9.2 mph - 0.00 in Rain Light Rain
6:26 AM 44.1 °F 39.5 °F 37.0 °F 76% 30.06 in 10.0 mi WNW 8.1 mph - 0.00 in Rain Light Rain
6:51 AM 44.1 °F 38.6 °F 37.0 °F 76% 30.07 in 10.0 mi NW 10.4 mph - 0.00 in   Overcast
7:51 AM 42.1 °F 36.1 °F 36.0 °F 79% 30.10 in 8.0 mi NW 10.4 mph - 0.01 in Rain Light Rain
8:51 AM 44.1 °F 39.5 °F 37.9 °F 79% 30.12 in 10.0 mi SW 8.1 mph - 0.00 in Rain Light Rain
9:01 AM 42.1 °F 36.6 °F 37.0 °F 82% 30.11 in 2.5 mi WSW 9.2 mph 21.9 mph 0.02 in Rain Light Rain
9:13 AM 42.1 °F 36.1 °F 37.0 °F 82% 30.11 in 3.0 mi WSW 10.4 mph - 0.04 in Rain Rain
9:24 AM 42.1 °F 36.1 °F 37.9 °F 85% 30.12 in 4.0 mi West 10.4 mph - 0.06 in Rain Light Rain
9:42 AM 42.1 °F 36.6 °F 37.0 °F 82% 30.11 in 10.0 mi West 9.2 mph - 0.06 in Rain Light Rain
9:51 AM 43.0 °F 37.7 °F 37.9 °F 82% 30.12 in 10.0 mi West 9.2 mph - 0.06 in   Overcast
10:10 AM 42.1 °F 34.9 °F 37.0 °F 82% 30.13 in 1.8 mi West 13.8 mph - 0.01 in Rain Rain
10:15 AM 39.9 °F 31.1 °F 36.0 °F 86% 30.13 in 3.0 mi WNW 17.3 mph 24.2 mph 0.04 in Rain Heavy Rain
10:51 AM 42.1 °F 34.9 °F 35.1 °F 76% 30.14 in 10.0 mi West 13.8 mph - 0.06 in   Overcast
11:11 AM 42.1 °F 33.9 °F 30.9 °F 65% 30.13 in 10.0 mi West 17.3 mph 26.5 mph N/A   Mostly Cloudy
11:51 AM 42.1 °F 32.8 °F 28.9 °F 60% 30.15 in 10.0 mi West 21.9 mph 29.9 mph N/A   Mostly Cloudy
12:51 PM 43.0 °F 35.1 °F 28.0 °F 56% 30.14 in 10.0 mi West 17.3 mph 29.9 mph N/A   Mostly Cloudy
1:51 PM 42.1 °F 32.8 °F 26.1 °F 53% 30.14 in 10.0 mi West 21.9 mph 33.4 mph N/A   Overcast
2:51 PM 43.0 °F 36.0 °F 27.0 °F 53% 30.13 in 10.0 mi West 13.8 mph 21.9 mph N/A   Overcast
3:51 PM 43.0 °F 35.1 °F 26.1 °F 51% 30.14 in 10.0 mi WNW 17.3 mph 27.6 mph N/A   Overcast
4:51 PM 44.1 °F 37.4 °F 28.0 °F 53% 30.13 in 10.0 mi WNW 13.8 mph - N/A   Overcast
5:51 PM 43.0 °F 37.7 °F 28.9 °F 58% 30.14 in 10.0 mi WSW 9.2 mph - N/A   Overcast
6:51 PM 43.0 °F 37.2 °F 30.0 °F 60% 30.15 in 10.0 mi WSW 10.4 mph - 0.00 in Rain Light Rain
7:51 PM 42.1 °F 36.6 °F 30.0 °F 62% 30.14 in 10.0 mi SW 9.2 mph - 0.00 in   Overcast
8:51 PM 43.0 °F 37.2 °F 28.9 °F 58% 30.14 in 10.0 mi West 10.4 mph - N/A   Overcast
9:51 PM 42.1 °F 35.7 °F 28.9 °F 60% 30.13 in 10.0 mi WSW 11.5 mph - N/A   Overcast
10:51 PM 42.1 °F 35.2 °F 28.9 °F 60% 30.13 in 10.0 mi WSW 12.7 mph - N/A   Overcast
11:51 PM 42.1 °F 34.2 °F 28.9 °F 60% 30.14 in 9.0 mi WNW 16.1 mph 23.0 mph N/A   Overcast